| time (UTC) | temp C | wind direction | speed KPH | gust KPH | rain 1hr cm | rain 24hr cm | rain mn cm | humidity % | barometer mb |
| 20260906212139 | 33 | 94 | 20.9 | 32.2 | 0.00 | 2.97 | 0.05 | 31 | 1009.0 |
| 20260906211636 | 33 | 150 | 19.3 | 38.6 | 0.00 | 2.97 | 0.05 | 32 | 1009.1 |
| 20260906211135 | 33 | 126 | 19.3 | 38.6 | 0.00 | 2.97 | 0.05 | 32 | 1009.2 |
| 20260906210636 | 33 | 162 | 17.7 | 33.8 | 0.00 | 2.97 | 0.05 | 32 | 1009.4 |
| 20260906210405 | 33 | 151 | 19.3 | 33.8 | 0.00 | 2.97 | 0.05 | 32 | 1009.4 |
| 20260906205633 | 33 | 136 | 17.7 | 33.8 | 0.00 | 2.97 | 0.05 | 32 | 1009.5 |
| 20260906205135 | 34 | 142 | 16.1 | 30.6 | 0.00 | 2.97 | 0.05 | 33 | 1009.5 |
| 20260906204633 | 33 | 110 | 16.1 | 29.0 | 0.00 | 2.97 | 0.05 | 32 | 1009.6 |
| 20260906204131 | 33 | 200 | 16.1 | 29.0 | 0.00 | 2.97 | 0.05 | 33 | 1009.6 |
| 20260906203632 | 33 | 158 | 17.7 | 30.6 | 0.00 | 2.97 | 0.05 | 34 | 1009.7 |
| 20260906203130 | 33 | 122 | 16.1 | 30.6 | 0.00 | 2.97 | 0.05 | 34 | 1009.7 |
| 20260906202629 | 33 | 170 | 14.5 | 29.0 | 0.00 | 2.97 | 0.05 | 35 | 1009.6 |
| 20260906202129 | 33 | 139 | 14.5 | 27.4 | 0.00 | 2.97 | 0.05 | 34 | 1009.7 |
| 20260906201900 | 33 | 128 | 17.7 | 38.6 | 0.00 | 2.97 | 0.05 | 33 | 1009.7 |
| 20260906201128 | 33 | 172 | 16.1 | 38.6 | 0.00 | 2.97 | 0.05 | 33 | 1009.9 |
| 20260906200857 | 33 | 189 | 12.9 | 25.7 | 0.00 | 2.97 | 0.05 | 33 | 1009.8 |
| 20260906200357 | 33 | 141 | 12.9 | 25.7 | 0.00 | 2.97 | 0.05 | 33 | 1009.9 |
| 20260906195625 | 33 | 148 | 11.3 | 20.9 | 0.00 | 2.97 | 0.05 | 33 | 1009.8 |
| 20260906195125 | 33 | 206 | 12.9 | 20.9 | 0.00 | 2.97 | 0.05 | 34 | 1009.9 |
| 20260906194623 | 33 | 167 | 12.9 | 25.7 | 0.00 | 2.97 | 0.05 | 35 | 1009.9 |
| 20260906194123 | 33 | 169 | 12.9 | 25.7 | 0.00 | 2.97 | 0.05 | 34 | 1010.1 |
| 20260906193621 | 33 | 121 | 12.9 | 25.7 | 0.00 | 2.97 | 0.05 | 34 | 1010.2 |
| 20260906193353 | 33 | 181 | 14.5 | 27.4 | 0.00 | 2.97 | 0.05 | 35 | 1010.2 |
| 20260906192622 | 33 | 127 | 16.1 | 30.6 | 0.00 | 2.97 | 0.05 | 35 | 1010.4 |
| 20260906192122 | 32 | 150 | 14.5 | 30.6 | 0.00 | 2.97 | 0.05 | 36 | 1010.4 |
| 20260906191619 | 33 | 160 | 14.5 | 32.2 | 0.00 | 2.97 | 0.05 | 35 | 1010.4 |
| 20260906191350 | 33 | 174 | 16.1 | 32.2 | 0.00 | 2.97 | 0.05 | 36 | 1010.6 |
| 20260906190619 | 32 | 131 | 16.1 | 27.4 | 0.00 | 2.97 | 0.05 | 37 | 1010.7 |
| 20260906190119 | 33 | 148 | 12.9 | 27.4 | 0.00 | 2.97 | 0.05 | 37 | 1010.7 |
| 20260906185617 | 33 | 130 | 9.7 | 22.5 | 0.00 | 2.97 | 0.05 | 37 | 1010.8 |
| 20260906185115 | 32 | 153 | 12.9 | 24.1 | 0.00 | 2.97 | 0.05 | 37 | 1010.8 |
| 20260906184615 | 32 | 147 | 11.3 | 24.1 | 0.00 | 2.97 | 0.05 | 37 | 1011.0 |
| 20260906184115 | 32 | 147 | 12.9 | 25.7 | 0.00 | 2.97 | 0.05 | 39 | 1011.0 |
| 20260906183613 | 32 | 204 | 16.1 | 25.7 | 0.00 | 2.97 | 0.05 | 39 | 1011.1 |
| 20260906183114 | 32 | 205 | 16.1 | 25.7 | 0.00 | 2.97 | 0.05 | 39 | 1011.1 |
| 20260906182613 | 32 | 204 | 12.9 | 24.1 | 0.00 | 2.97 | 0.05 | 39 | 1011.2 |
| 20260906182113 | 32 | 123 | 14.5 | 38.6 | 0.00 | 2.97 | 0.05 | 39 | 1011.3 |
| 20260906181843 | 32 | 165 | 14.5 | 38.6 | 0.00 | 2.97 | 0.05 | 40 | 1011.4 |
| 20260906181110 | 32 | 163 | 14.5 | 24.1 | 0.00 | 2.97 | 0.05 | 40 | 1011.4 |
| 20260906180840 | 32 | 165 | 17.7 | 29.0 | 0.00 | 2.97 | 0.05 | 40 | 1011.6 |
| 20260906180110 | 32 | 216 | 16.1 | 29.0 | 0.00 | 2.97 | 0.05 | 39 | 1011.6 |
| 20260906175607 | 32 | 192 | 14.5 | 27.4 | 0.00 | 2.97 | 0.05 | 41 | 1011.7 |
| 20260906175107 | 31 | 206 | 16.1 | 29.0 | 0.00 | 2.97 | 0.05 | 41 | 1011.8 |
| 20260906174607 | 31 | 213 | 17.7 | 29.0 | 0.00 | 2.97 | 0.05 | 41 | 1011.8 |
| 20260906174105 | 31 | 163 | 16.1 | 25.7 | 0.00 | 2.97 | 0.05 | 42 | 1011.9 |
| 20260906173606 | 31 | 198 | 16.1 | 25.7 | 0.00 | 2.97 | 0.05 | 42 | 1011.9 |
| 20260906173106 | 31 | 179 | 17.7 | 32.2 | 0.00 | 2.97 | 0.05 | 42 | 1012.0 |
| 20260906172607 | 31 | 156 | 17.7 | 32.2 | 0.00 | 2.97 | 0.05 | 42 | 1012.1 |
| 20260906172105 | 31 | 163 | 16.1 | 32.2 | 0.00 | 2.97 | 0.05 | 43 | 1012.0 |
| 20260906171609 | 31 | 200 | 16.1 | 25.7 | 0.00 | 2.97 | 0.05 | 45 | 1012.2 |
| 20260906171605 | 31 | 163 | 16.1 | 25.7 | 0.00 | 2.97 | 0.05 | 43 | 1012.1 |
| 20260906170603 | 31 | 186 | 16.1 | 25.7 | 0.00 | 2.97 | 0.05 | 44 | 1012.2 |
| 20260906165601 | 30 | 178 | 17.7 | 25.7 | 0.00 | 2.97 | 0.05 | 47 | 1012.2 |
| 20260906165101 | 30 | 209 | 17.7 | 29.0 | 0.00 | 2.97 | 0.05 | 45 | 1012.2 |
| 20260906164559 | 30 | 164 | 17.7 | 29.0 | 0.00 | 2.97 | 0.05 | 46 | 1012.2 |
| 20260906164101 | 30 | 164 | 14.5 | 24.1 | 0.00 | 2.97 | 0.05 | 49 | 1012.3 |
| 20260906163558 | 30 | 208 | 14.5 | 24.1 | 0.00 | 2.97 | 0.05 | 50 | 1012.3 |
| 20260906163055 | 30 | 172 | 14.5 | 24.1 | 0.00 | 2.97 | 0.05 | 51 | 1012.2 |
| 20260906162556 | 30 | 281 | 14.5 | 22.5 | 0.00 | 2.97 | 0.05 | 52 | 1012.2 |
| 20260906162055 | 29 | 206 | 14.5 | 25.7 | 0.00 | 2.97 | 0.05 | 52 | 1012.2 |
| 20260906161555 | 29 | 203 | 14.5 | 25.7 | 0.00 | 2.97 | 0.05 | 52 | 1012.2 |
| 20260906161055 | 29 | 224 | 14.5 | 22.5 | 0.00 | 2.97 | 0.05 | 53 | 1012.3 |
| 20260906160554 | 28 | 244 | 16.1 | 22.5 | 0.00 | 2.97 | 0.05 | 53 | 1012.3 |
| 20260906160054 | 28 | 159 | 16.1 | 20.9 | 0.00 | 2.97 | 0.05 | 54 | 1012.3 |
| 20260906155551 | 28 | 204 | 14.5 | 22.5 | 0.00 | 2.97 | 0.05 | 56 | 1012.3 |
| 20260906155052 | 28 | 214 | 12.9 | 22.5 | 0.00 | 2.97 | 0.05 | 56 | 1012.4 |
| 20260906154820 | 28 | 179 | 11.3 | 22.5 | 0.00 | 2.97 | 0.05 | 57 | 1012.4 |
| 20260906154053 | 28 | 229 | 11.3 | 20.9 | 0.00 | 2.97 | 0.05 | 58 | 1012.3 |
| 20260906154049 | 28 | 224 | 11.3 | 20.9 | 0.00 | 2.97 | 0.05 | 58 | 1012.4 |
| 20260906153657 | 27 | 222 | 11.3 | 20.9 | 0.00 | 2.97 | 0.05 | 60 | 1012.4 |
| 20260906152548 | 27 | 157 | 12.9 | 20.9 | 0.00 | 2.97 | 0.05 | 59 | 1012.3 |
| 20260906152047 | 27 | 206 | 11.3 | 20.9 | 0.00 | 2.97 | 0.05 | 60 | 1012.2 |
| 20260906151545 | 27 | 212 | 12.9 | 20.9 | 0.00 | 2.97 | 0.05 | 60 | 1012.3 |
| 20260906151046 | 27 | 207 | 12.9 | 20.9 | 0.00 | 2.97 | 0.05 | 61 | 1012.2 |
| 20260906150544 | 26 | 198 | 12.9 | 20.9 | 0.00 | 2.97 | 0.05 | 61 | 1012.3 |
| 20260906150043 | 26 | 195 | 11.3 | 20.9 | 0.00 | 2.97 | 0.05 | 62 | 1012.3 |
| 20260906145541 | 26 | 143 | 11.3 | 20.9 | 0.00 | 2.97 | 0.05 | 62 | 1012.3 |
| 20260906145041 | 25 | 173 | 11.3 | 19.3 | 0.00 | 2.97 | 0.05 | 64 | 1012.3 |
| 20260906144812 | 25 | 225 | 11.3 | 19.3 | 0.00 | 2.97 | 0.05 | 65 | 1012.3 |
| 20260906144041 | 25 | 217 | 12.9 | 19.3 | 0.00 | 2.97 | 0.05 | 65 | 1012.3 |
| 20260906143545 | 24 | 227 | 11.3 | 19.3 | 0.00 | 2.97 | 0.05 | 64 | 1012.3 |
| 20260906143541 | 25 | 176 | 12.9 | 19.3 | 0.00 | 2.97 | 0.05 | 64 | 1012.4 |
| 20260906142540 | 24 | 203 | 9.7 | 16.1 | 0.00 | 2.97 | 0.05 | 66 | 1012.3 |
| 20260906142307 | 24 | 213 | 11.3 | 19.3 | 0.00 | 2.97 | 0.05 | 66 | 1012.3 |
| 20260906141537 | 23 | 188 | 12.9 | 19.3 | 0.00 | 2.97 | 0.05 | 66 | 1012.2 |
| 20260906141034 | 23 | 193 | 11.3 | 17.7 | 0.00 | 2.97 | 0.05 | 66 | 1012.2 |
| 20260906140806 | 23 | 203 | 9.7 | 17.7 | 0.03 | 2.97 | 0.05 | 66 | 1012.1 |
| 20260906140037 | 23 | 193 | 9.7 | 14.5 | 0.03 | 2.97 | 0.05 | 67 | 1012.1 |
| 20260906135535 | 23 | 194 | 9.7 | 14.5 | 0.03 | 2.97 | 0.05 | 68 | 1012.1 |
| 20260906135035 | 23 | 162 | 9.7 | 12.9 | 0.03 | 2.97 | 0.05 | 68 | 1012.1 |
| 20260906134535 | 22 | 186 | 8.0 | 12.9 | 0.03 | 2.97 | 0.05 | 69 | 1012.0 |
| 20260906134035 | 22 | 141 | 8.0 | 11.3 | 0.03 | 2.97 | 0.05 | 69 | 1012.0 |
| 20260906133534 | 22 | 191 | 6.4 | 11.3 | 0.03 | 2.97 | 0.05 | 70 | 1012.0 |
| 20260906133035 | 22 | 191 | 6.4 | 9.7 | 0.03 | 2.97 | 0.05 | 70 | 1012.0 |
| 20260906132800 | 22 | 180 | 6.4 | 9.7 | 0.03 | 2.97 | 0.05 | 71 | 1011.9 |
| 20260906132029 | 21 | 149 | 6.4 | 9.7 | 0.03 | 2.97 | 0.05 | 71 | 1011.8 |
| 20260906131534 | 21 | 191 | 8.0 | 12.9 | 0.03 | 2.97 | 0.05 | 70 | 1011.7 |
| 20260906131528 | 21 | 175 | 6.4 | 12.9 | 0.03 | 2.97 | 0.05 | 71 | 1011.7 |
| 20260906130528 | 21 | 202 | 8.0 | 11.3 | 0.00 | 2.97 | 0.03 | 70 | 1011.6 |
| 20260906130029 | 22 | 190 | 8.0 | 11.3 | 0.00 | 2.97 | 0.03 | 69 | 1011.5 |
| 20260906125741 | 22 | 195 | 9.7 | 12.9 | 0.00 | 2.97 | 0.03 | 68 | 1011.4 |
| 20260906125614 | 22 | 167 | 8.0 | 12.9 | 0.00 | 2.97 | 0.03 | 69 | 1011.5 |
| 20260906124508 | 22 | 177 | 9.7 | 12.9 | 0.00 | 2.97 | 0.03 | 68 | 1011.4 |
| 20260906124006 | 22 | 185 | 9.7 | 14.5 | 0.00 | 2.97 | 0.03 | 67 | 1011.4 |
| 20260906123737 | 22 | 188 | 9.7 | 14.5 | 0.00 | 2.97 | 0.03 | 67 | 1011.4 |
| 20260906123011 | 22 | 204 | 9.7 | 14.5 | 0.00 | 2.97 | 0.03 | 68 | 1011.4 |
| 20260906123007 | 22 | 164 | 9.7 | 14.5 | 0.00 | 2.97 | 0.03 | 68 | 1011.4 |
| 20260906122006 | 22 | 194 | 8.0 | 12.9 | 0.00 | 2.97 | 0.03 | 68 | 1011.3 |
| 20260906121507 | 22 | 152 | 8.0 | 11.3 | 0.00 | 2.97 | 0.03 | 68 | 1011.2 |
| 20260906121007 | 22 | 193 | 8.0 | 12.9 | 0.00 | 2.97 | 0.03 | 67 | 1011.2 |
| 20260906120503 | 22 | 194 | 8.0 | 12.9 | 0.00 | 2.97 | 0.03 | 67 | 1011.1 |
| 20260906120002 | 22 | 141 | 6.4 | 12.9 | 0.00 | 2.97 | 0.03 | 67 | 1011.1 |
| 20260906115735 | 22 | 172 | 6.4 | 12.9 | 0.00 | 2.97 | 0.03 | 68 | 1011.1 |
| 20260906115000 | 23 | 167 | 6.4 | 9.7 | 0.00 | 2.97 | 0.03 | 67 | 1011.0 |
| 20260906114729 | 23 | 150 | 6.4 | 9.7 | 0.00 | 2.97 | 0.03 | 67 | 1011.0 |
| 20260906113957 | 23 | 179 | 6.4 | 9.7 | 0.00 | 2.97 | 0.03 | 67 | 1010.9 |
| 20260906113457 | 23 | 157 | 8.0 | 11.3 | 0.00 | 2.97 | 0.03 | 67 | 1010.8 |
| 20260906112955 | 23 | 167 | 8.0 | 12.9 | 0.00 | 2.97 | 0.03 | 65 | 1010.8 |
| 20260906112456 | 23 | 181 | 8.0 | 12.9 | 0.00 | 2.97 | 0.03 | 65 | 1010.7 |
| 20260906111954 | 23 | 159 | 8.0 | 11.3 | 0.00 | 2.97 | 0.03 | 66 | 1010.7 |
| 20260906111723 | 23 | 179 | 6.4 | 11.3 | 0.00 | 2.97 | 0.03 | 66 | 1010.7 |
| 20260906111221 | 23 | 206 | 6.4 | 11.3 | 0.00 | 2.97 | 0.03 | 65 | 1010.7 |
| 20260906110450 | 23 | 179 | 8.0 | 11.3 | 0.00 | 2.97 | 0.03 | 65 | 1010.7 |
| 20260906105955 | 23 | 170 | 8.0 | 12.9 | 0.00 | 2.97 | 0.03 | 65 | 1010.7 |
| 20260906105951 | 23 | 180 | 8.0 | 12.9 | 0.00 | 2.97 | 0.03 | 65 | 1010.7 |
| 20260906104948 | 23 | 165 | 8.0 | 11.3 | 0.00 | 2.97 | 0.03 | 66 | 1010.7 |
| 20260906104449 | 23 | 166 | 6.4 | 9.7 | 0.00 | 2.97 | 0.03 | 67 | 1010.7 |
| 20260906103948 | 23 | 187 | 4.8 | 8.0 | 0.00 | 2.97 | 0.03 | 68 | 1010.7 |
| 20260906103717 | 23 | 184 | 3.2 | 6.4 | 0.00 | 2.97 | 0.03 | 69 | 1010.8 |
| 20260906102947 | 23 | 165 | 3.2 | 4.8 | 0.00 | 2.97 | 0.03 | 69 | 1010.7 |
| 20260906102446 | 23 | 154 | 1.6 | 4.8 | 0.00 | 2.97 | 0.03 | 69 | 1010.7 |
| 20260906101946 | 23 | 132 | 0.0 | 4.8 | 0.00 | 2.97 | 0.03 | 68 | 1010.6 |
| 20260906101718 | 23 | 151 | 0.0 | 1.6 | 0.00 | 2.97 | 0.03 | 69 | 1010.6 |
| 20260906100940 | 23 | 150 | 3.2 | 6.4 | 0.00 | 2.97 | 0.03 | 68 | 1010.5 |
| 20260906100936 | 23 | 148 | 1.6 | 4.8 | 0.00 | 2.97 | 0.03 | 69 | 1010.6 |
| 20260906095934 | 23 | 108 | 3.2 | 6.4 | 0.00 | 2.97 | 0.03 | 67 | 1010.6 |
| 20260906095429 | 23 | 131 | 1.6 | 4.8 | 0.00 | 2.97 | 0.03 | 67 | 1010.6 |
| 20260906094924 | 23 | 114 | 3.2 | 6.4 | 0.00 | 2.97 | 0.03 | 68 | 1010.6 |
| 20260906094424 | 23 | 111 | 1.6 | 6.4 | 0.00 | 2.97 | 0.03 | 68 | 1010.7 |
| 20260906093926 | 23 | 95 | 1.6 | 4.8 | 0.00 | 2.97 | 0.03 | 69 | 1010.7 |
| 20260906093417 | 23 | 106 | 3.2 | 4.8 | 0.00 | 2.97 | 0.03 | 69 | 1010.6 |
| 20260906092912 | 23 | 130 | 3.2 | 6.4 | 0.00 | 2.97 | 0.03 | 69 | 1010.6 |
| 20260906092354 | 23 | 135 | 3.2 | 9.7 | 0.00 | 2.97 | 0.03 | 67 | 1010.6 |
| 20260906091850 | 23 | 131 | 4.8 | 9.7 | 0.00 | 2.97 | 0.03 | 67 | 1010.6 |
| 20260906091350 | 23 | 114 | 3.2 | 9.7 | 0.00 | 2.97 | 0.03 | 67 | 1010.6 |
| 20260906091121 | 23 | 112 | 3.2 | 6.4 | 0.00 | 2.97 | 0.03 | 67 | 1010.7 |
| 20260906090348 | 23 | 137 | 3.2 | 6.4 | 0.00 | 2.97 | 0.03 | 67 | 1010.7 |
| 20260906085839 | 23 | 131 | 4.8 | 6.4 | 0.00 | 2.97 | 0.03 | 67 | 1010.6 |
| 20260906085340 | 23 | 148 | 4.8 | 8.0 | 0.00 | 2.97 | 0.03 | 68 | 1010.6 |
| 20260906084838 | 23 | 151 | 4.8 | 8.0 | 0.00 | 2.97 | 0.03 | 67 | 1010.6 |
| 20260906084336 | 23 | 157 | 3.2 | 8.0 | 0.00 | 2.97 | 0.03 | 67 | 1010.5 |
| 20260906083836 | 23 | 161 | 3.2 | 6.4 | 0.00 | 2.97 | 0.03 | 68 | 1010.6 |
| 20260906083336 | 23 | 175 | 4.8 | 6.4 | 0.00 | 2.97 | 0.03 | 67 | 1010.6 |
| 20260906082838 | 24 | 200 | 6.4 | 9.7 | 0.00 | 2.97 | 0.03 | 65 | 1010.7 |
| 20260906082834 | 24 | 191 | 4.8 | 9.7 | 0.00 | 2.97 | 0.03 | 66 | 1010.6 |
| 20260906082103 | 24 | 183 | 6.4 | 9.7 | 0.00 | 2.97 | 0.03 | 64 | 1010.7 |
| 20260906081333 | 24 | 189 | 8.0 | 16.1 | 0.00 | 2.97 | 0.03 | 63 | 1010.7 |
| 20260906080832 | 24 | 200 | 8.0 | 16.1 | 0.00 | 2.97 | 0.03 | 62 | 1010.7 |
| 20260906080332 | 24 | 224 | 8.0 | 16.1 | 0.00 | 2.97 | 0.03 | 62 | 1010.8 |
| 20260906075830 | 24 | 236 | 6.4 | 14.5 | 0.00 | 2.97 | 0.03 | 64 | 1010.9 |
| 20260906075331 | 24 | 227 | 8.0 | 11.3 | 0.00 | 2.97 | 0.03 | 64 | 1010.8 |
| 20260906074830 | 24 | 203 | 8.0 | 12.9 | 0.00 | 2.97 | 0.03 | 63 | 1010.8 |
| 20260906074330 | 24 | 218 | 8.0 | 12.9 | 0.00 | 2.97 | 0.03 | 63 | 1010.8 |
| 20260906073830 | 24 | 220 | 8.0 | 12.9 | 0.00 | 2.97 | 0.03 | 62 | 1010.9 |
| 20260906073600 | 24 | 197 | 8.0 | 12.9 | 0.00 | 2.97 | 0.03 | 62 | 1010.9 |
| 20260906073436 | 24 | 262 | 8.0 | 14.5 | 0.00 | 2.97 | 0.03 | 62 | 1010.8 |
| 20260906072330 | 25 | 190 | 11.3 | 16.1 | 0.00 | 2.97 | 0.03 | 61 | 1010.7 |
| 20260906072326 | 25 | 193 | 9.7 | 14.5 | 0.00 | 2.97 | 0.03 | 62 | 1010.7 |
| 20260906071326 | 25 | 205 | 11.3 | 17.7 | 0.00 | 2.97 | 0.03 | 61 | 1010.6 |
| 20260906070826 | 25 | 174 | 9.7 | 17.7 | 0.00 | 2.97 | 0.03 | 61 | 1010.6 |
| 20260906070324 | 25 | 186 | 9.7 | 19.3 | 0.00 | 2.97 | 0.03 | 61 | 1010.6 |
| 20260906065824 | 25 | 179 | 11.3 | 19.3 | 0.00 | 2.97 | 0.03 | 61 | 1010.5 |
| 20260906065324 | 25 | 193 | 11.3 | 16.1 | 0.00 | 2.97 | 0.03 | 61 | 1010.6 |
| 20260906064824 | 25 | 202 | 9.7 | 14.5 | 0.00 | 2.97 | 0.03 | 61 | 1010.5 |
| 20260906064559 | 25 | 163 | 11.3 | 17.7 | 0.00 | 2.97 | 0.03 | 62 | 1010.6 |
| 20260906064322 | 25 | 165 | 12.9 | 17.7 | 0.00 | 2.97 | 0.03 | 61 | 1010.6 |
| 20260906063318 | 25 | 140 | 12.9 | 20.9 | 0.00 | 2.97 | 0.03 | 61 | 1010.5 |
| 20260906062819 | 25 | 153 | 12.9 | 20.9 | 0.00 | 2.97 | 0.03 | 60 | 1010.5 |
| 20260906062548 | 25 | 136 | 12.9 | 20.9 | 0.00 | 2.97 | 0.03 | 59 | 1010.4 |
| 20260906061812 | 25 | 143 | 14.5 | 20.9 | 0.00 | 2.97 | 0.03 | 59 | 1010.6 |
| 20260906061306 | 25 | 155 | 11.3 | 20.9 | 0.00 | 2.97 | 0.03 | 60 | 1010.6 |
| 20260906061038 | 25 | 143 | 9.7 | 14.5 | 0.00 | 2.97 | 0.03 | 63 | 1010.6 |
| 20260906060537 | 25 | 154 | 9.7 | 14.5 | 0.00 | 2.97 | 0.03 | 65 | 1010.6 |
| 20260906055806 | 25 | 155 | 9.7 | 12.9 | 0.10 | 2.97 | 0.03 | 65 | 1010.7 |
| 20260906055306 | 25 | 141 | 9.7 | 12.9 | 0.84 | 2.97 | 0.03 | 64 | 1010.7 |
| 20260906054803 | 25 | 134 | 9.7 | 12.9 | 3.78 | 2.97 | 0.03 | 64 | 1010.6 |
| 20260906054304 | 25 | 162 | 9.7 | 17.7 | 6.63 | 2.97 | 0.03 | 63 | 1010.6 |
| 20260906053804 | 25 | 173 | 9.7 | 17.7 | 9.88 | 2.97 | 0.03 | 64 | 1010.6 |
| 20260906053304 | 25 | 181 | 9.7 | 14.5 | 12.93 | 2.97 | 0.03 | 67 | 1010.5 |
| 20260906052802 | 24 | 164 | 8.0 | 14.5 | 15.14 | 2.97 | 0.03 | 71 | 1010.5 |
| 20260906052305 | 24 | 136 | 8.0 | 11.3 | 18.19 | 2.97 | 0.03 | 73 | 1010.5 |
| 20260906051759 | 24 | 156 | 6.4 | 9.7 | 21.23 | 2.97 | 0.03 | 72 | 1010.5 |
| 20260906051258 | 25 | 164 | 6.4 | 11.3 | 24.59 | 2.97 | 0.03 | 70 | 1010.5 |
| 20260906050757 | 25 | 157 | 8.0 | 14.5 | 2.72 | 2.97 | 0.03 | 68 | 1010.6 |
| 20260906050255 | 25 | 196 | 9.7 | 14.5 | 2.84 | 2.97 | 0.03 | 67 | 1010.6 |
| 20260906045752 | 25 | 202 | 8.0 | 14.5 | 2.84 | 2.97 | 2.97 | 67 | 1010.6 |
| 20260906045523 | 25 | 192 | 6.4 | 12.9 | 2.77 | 2.90 | 2.92 | 67 | 1010.6 |
| 20260906044752 | 25 | 202 | 6.4 | 9.7 | 24.79 | 2.59 | 2.59 | 68 | 1010.6 |
| 20260906044252 | 25 | 162 | 8.0 | 11.3 | 21.95 | 23.29 | 23.29 | 67 | 1010.6 |
| 20260906043750 | 25 | 203 | 8.0 | 12.9 | 18.69 | 20.04 | 20.35 | 67 | 1010.6 |
| 20260906043246 | 25 | 187 | 9.7 | 16.1 | 15.06 | 16.41 | 16.99 | 66 | 1010.7 |
| 20260906042744 | 25 | 205 | 9.7 | 16.1 | 12.52 | 13.87 | 14.38 | 64 | 1010.7 |
| 20260906042514 | 25 | 224 | 8.0 | 16.1 | 9.68 | 11.02 | 11.33 | 64 | 1010.7 |
| 20260906041743 | 25 | 228 | 6.4 | 11.3 | 6.43 | 7.77 | 8.69 | 66 | 1010.7 |
| 20260906041242 | 25 | 205 | 6.4 | 9.7 | 3.99 | 5.33 | 5.33 | 66 | 1010.7 |
| 20260906041013 | 25 | 209 | 6.4 | 12.9 | 0.28 | 1.63 | 2.59 | 66 | 1010.8 |
| 20260906040242 | 25 | 237 | 6.4 | 12.9 | 0.00 | 1.35 | 1.35 | 68 | 1010.8 |
| 20260906035742 | 25 | 216 | 6.4 | 12.9 | 0.00 | 1.35 | 1.35 | 67 | 1010.8 |
| 20260906035240 | 25 | 254 | 8.0 | 12.9 | 0.00 | 1.35 | 1.35 | 68 | 1010.8 |
| 20260906034740 | 25 | 215 | 11.3 | 17.7 | 0.03 | 1.35 | 1.35 | 68 | 1010.7 |
| 20260906034238 | 25 | 199 | 12.9 | 17.7 | 0.13 | 1.35 | 1.35 | 67 | 1010.6 |
| 20260906033738 | 25 | 210 | 12.9 | 17.7 | 0.23 | 1.35 | 1.35 | 67 | 1010.5 |
| 20260906033238 | 24 | 179 | 12.9 | 20.9 | 0.48 | 1.35 | 1.35 | 69 | 1010.6 |
| 20260906032738 | 24 | 198 | 14.5 | 24.1 | 0.66 | 1.35 | 1.35 | 69 | 1010.7 |
| 20260906032236 | 24 | 214 | 16.1 | 24.1 | 0.89 | 1.35 | 1.35 | 70 | 1010.7 |
| 20260906031734 | 23 | 202 | 14.5 | 24.1 | 1.17 | 1.35 | 1.35 | 70 | 1010.7 |
| 20260906031234 | 24 | 212 | 14.5 | 29.0 | 1.35 | 1.35 | 1.35 | 69 | 1010.7 |
| 20260906030734 | 23 | 167 | 17.7 | 29.0 | 1.35 | 1.35 | 1.35 | 68 | 1010.6 |
| 20260906030233 | 23 | 238 | 19.3 | 30.6 | 1.35 | 1.35 | 1.35 | 71 | 1010.5 |
| 20260906025734 | 23 | 219 | 19.3 | 37.0 | 1.35 | 1.35 | 1.35 | 72 | 1010.6 |
| 20260906025238 | 22 | 143 | 24.1 | 38.6 | 1.32 | 1.32 | 1.32 | 71 | 1010.3 |
| 20260906025235 | 23 | 194 | 19.3 | 37.0 | 1.35 | 1.35 | 1.35 | 68 | 1010.4 |
| 20260906024234 | 22 | 181 | 33.8 | 66.0 | 1.22 | 1.22 | 1.27 | 67 | 1010.1 |
| 20260906023727 | 22 | 195 | 43.5 | 74.0 | 1.07 | 1.07 | 1.09 | 68 | 1010.0 |
| 20260906023228 | 22 | 196 | 51.5 | 83.7 | 0.86 | 0.86 | 0.86 | 71 | 1010.1 |
| 20260906023001 | 23 | 194 | 43.5 | 83.7 | 0.69 | 0.69 | 0.69 | 68 | 1009.7 |
| 20260906022457 | 25 | 200 | 24.1 | 53.1 | 0.46 | 0.46 | 0.46 | 62 | 1009.7 |
| 20260906021726 | 27 | 191 | 19.3 | 33.8 | 0.15 | 0.15 | 0.18 | 57 | 1009.6 |
| 20260906021218 | 28 | 143 | 14.5 | 27.4 | 0.00 | 0.00 | 0.00 | 51 | 1009.4 |
| 20260906020719 | 29 | 141 | 11.3 | 27.4 | 0.00 | 0.00 | 0.00 | 46 | 1009.3 |
| 20260906020218 | 29 | 169 | 4.8 | 19.3 | 0.00 | 0.00 | 0.00 | 44 | 1009.2 |
| 20260906015716 | 30 | 264 | 1.6 | 17.7 | 0.00 | 0.00 | 0.00 | 44 | 1009.3 |
| 20260906015216 | 30 | 124 | 4.8 | 11.3 | 0.00 | 0.00 | 0.00 | 44 | 1009.1 |
| 20260906014714 | 30 | 314 | 6.4 | 17.7 | 0.00 | 0.00 | 0.00 | 43 | 1008.9 |
| 20260906014212 | 30 | 61 | 9.7 | 17.7 | 0.00 | 0.00 | 0.00 | 43 | 1008.4 |
| 20260906013711 | 30 | 108 | 11.3 | 19.3 | 0.00 | 0.00 | 0.00 | 44 | 1008.2 |
| 20260906013209 | 30 | 55 | 9.7 | 19.3 | 0.00 | 0.00 | 0.00 | 42 | 1008.2 |
| 20260906012711 | 32 | 24 | 4.8 | 16.1 | 0.00 | 0.00 | 0.00 | 34 | 1008.3 |
| 20260906012209 | 32 | 120 | 1.6 | 11.3 | 0.00 | 0.00 | 0.00 | 34 | 1008.1 |
| 20260906011711 | 32 | 14 | 1.6 | 6.4 | 0.00 | 0.00 | 0.00 | 34 | 1008.0 |
| 20260906011656 | 32 | 359 | 3.2 | 6.4 | 0.00 | 0.00 | 0.00 | 34 | 1008.0 |
| 20260906011150 | 32 | 2 | 3.2 | 6.4 | 0.00 | 0.00 | 0.00 | 35 | 1008.0 |
| 20260906010149 | 32 | 0 | 1.6 | 4.8 | 0.00 | 0.00 | 0.00 | 34 | 1007.8 |
| 20260906005639 | 32 | 352 | 1.6 | 4.8 | 0.00 | 0.00 | 0.00 | 34 | 1007.8 |
| 20260906005138 | 32 | 259 | 3.2 | 8.0 | 0.00 | 0.00 | 0.00 | 34 | 1007.9 |
| 20260906004635 | 32 | 301 | 8.0 | 14.5 | 0.00 | 0.00 | 0.00 | 34 | 1007.8 |
| 20260906004135 | 32 | 354 | 9.7 | 16.1 | 0.00 | 0.00 | 0.00 | 34 | 1007.7 |
| 20260906003636 | 32 | 335 | 12.9 | 20.9 | 0.00 | 0.00 | 0.00 | 34 | 1007.6 |
| 20260906003133 | 32 | 334 | 14.5 | 20.9 | 0.00 | 0.00 | 0.00 | 34 | 1007.6 |
| 20260906002635 | 32 | 342 | 16.1 | 29.0 | 0.00 | 0.00 | 0.00 | 34 | 1007.6 |
| 20260906002405 | 32 | 352 | 16.1 | 29.0 | 0.00 | 0.00 | 0.00 | 34 | 1007.6 |
| 20260906001632 | 32 | 345 | 16.1 | 24.1 | 0.00 | 0.00 | 0.00 | 33 | 1007.6 |
| 20260906001132 | 32 | 346 | 17.7 | 27.4 | 0.00 | 0.00 | 0.00 | 33 | 1007.6 |
| 20260906000631 | 32 | 350 | 12.9 | 27.4 | 0.00 | 0.00 | 0.00 | 33 | 1007.5 |
| 20260906000129 | 32 | 3 | 8.0 | 17.7 | 0.00 | 0.00 | 0.00 | 33 | 1007.6 |
| 20260905235630 | 33 | 294 | 6.4 | 20.9 | 0.00 | 0.00 | 0.00 | 31 | 1007.6 |
| 20260905235129 | 35 | 300 | 8.0 | 20.9 | 0.00 | 0.00 | 0.00 | 30 | 1007.5 |
| 20260905234628 | 35 | 207 | 11.3 | 20.9 | 0.00 | 0.00 | 0.00 | 28 | 1007.3 |
| 20260905234128 | 35 | 233 | 9.7 | 17.7 | 0.00 | 0.00 | 0.00 | 28 | 1007.1 |
| 20260905233859 | 35 | 132 | 9.7 | 19.3 | 0.00 | 0.00 | 0.00 | 28 | 1007.0 |
| 20260905233125 | 35 | 140 | 9.7 | 19.3 | 0.00 | 0.00 | 0.00 | 27 | 1007.0 |
| 20260905232626 | 35 | 124 | 11.3 | 20.9 | 0.00 | 0.00 | 0.00 | 27 | 1006.9 |
| 20260905232125 | 35 | 148 | 12.9 | 25.7 | 0.00 | 0.00 | 0.00 | 28 | 1007.0 |
| 20260905231626 | 35 | 160 | 9.7 | 25.7 | 0.00 | 0.00 | 0.00 | 28 | 1006.9 |
| 20260905231124 | 35 | 164 | 11.3 | 22.5 | 0.00 | 0.00 | 0.00 | 28 | 1006.9 |
| 20260905230624 | 35 | 70 | 12.9 | 22.5 | 0.00 | 0.00 | 0.00 | 28 | 1006.9 |
| 20260905230124 | 35 | 129 | 14.5 | 27.4 | 0.00 | 0.00 | 0.00 | 28 | 1006.9 |
| 20260905225624 | 35 | 158 | 14.5 | 27.4 | 0.00 | 0.00 | 0.00 | 28 | 1006.9 |
| 20260905225124 | 35 | 154 | 12.9 | 24.1 | 0.00 | 0.00 | 0.00 | 27 | 1006.8 |
| 20260905224855 | 35 | 219 | 12.9 | 24.1 | 0.00 | 0.00 | 0.00 | 27 | 1006.8 |
| 20260905224120 | 36 | 145 | 12.9 | 29.0 | 0.00 | 0.00 | 0.00 | 27 | 1006.9 |
| 20260905223617 | 36 | 126 | 12.9 | 29.0 | 0.00 | 0.00 | 0.00 | 27 | 1006.9 |
| 20260905223117 | 36 | 182 | 11.3 | 25.7 | 0.00 | 0.00 | 0.00 | 27 | 1006.9 |
| 20260905222618 | 36 | 175 | 12.9 | 24.1 | 0.00 | 0.00 | 0.00 | 27 | 1006.8 |
| 20260905222115 | 36 | 143 | 14.5 | 29.0 | 0.00 | 0.00 | 0.00 | 27 | 1006.9 |
| 20260905221619 | 35 | 188 | 12.9 | 24.1 | 0.00 | 0.00 | 0.00 | 28 | 1007.1 |
| 20260905221615 | 36 | 120 | 12.9 | 29.0 | 0.00 | 0.00 | 0.00 | 27 | 1007.0 |
| 20260905220615 | 36 | 159 | 14.5 | 27.4 | 0.00 | 0.00 | 0.00 | 28 | 1007.1 |
| 20260905220351 | 36 | 115 | 11.3 | 22.5 | 0.00 | 0.00 | 0.00 | 28 | 1007.2 |
| 20260905220115 | 36 | 131 | 14.5 | 27.4 | 0.00 | 0.00 | 0.00 | 28 | 1007.2 |
| 20260905215105 | 36 | 154 | 11.3 | 20.9 | 0.00 | 0.00 | 0.00 | 26 | 1007.2 |
| 20260905214604 | 36 | 136 | 9.7 | 19.3 | 0.00 | 0.00 | 0.00 | 25 | 1007.2 |
| 20260905214103 | 36 | 193 | 9.7 | 17.7 | 0.00 | 0.00 | 0.00 | 26 | 1007.2 |
| 20260905213832 | 36 | 159 | 11.3 | 22.5 | 0.00 | 0.00 | 0.00 | 27 | 1007.3 |
| 20260905213100 | 36 | 160 | 12.9 | 24.1 | 0.00 | 0.00 | 0.00 | 26 | 1007.4 |
| 20260905212600 | 36 | 176 | 12.9 | 24.1 | 0.00 | 0.00 | 0.00 | 26 | 1007.4 |
| 20260905212331 | 36 | 148 | 8.0 | 22.5 | 0.00 | 0.00 | 0.00 | 26 | 1007.5 |